• Processing (Info)

  • MPEC 2022-P102 : 2022 PM1

    The following Minor Planet Electronic Circular may be linked-to from your own Web pages, but must not otherwise be redistributed electronically.

    A form allowing access to any MPEC is at the bottom of this page.


    Read MPEC 2022-P101 Read MPEC 2022-P103


    M.P.E.C. 2022-P102                               Issued 2022 August 9, 22:32 UT
    
         The Minor Planet Electronic Circulars contain information on unusual
             minor planets and routine data on comets.  They are published
        on behalf of Division F of the International Astronomical Union by the
              Minor Planet Center, Smithsonian Astrophysical Observatory,
                              Cambridge, MA 02138, U.S.A.
    
                 Prepared using the Tamkin Foundation Computer Network
    
                                  MPC@CFA.HARVARD.EDU
                URL https://www.minorplanetcenter.net/    ISSN 1523-6714
    
                                    2022 PM1                                 
    
    
    Observations:
         K22P01M* C2022 08 04.55273700 16 56.669-31 41 54.28         21.73wUEP102F52
         K22P01M  C2022 08 04.56228600 16 56.327-31 42 01.88         22.03wUEP102F52
         K22P01M  C2022 08 04.57186500 16 55.958-31 42 09.52         22.16wUEP102F52
         K22P01M  C2022 08 04.61569500 16 54.383-31 42 44.17         22.38GVEP102F52
         K22P01M  C2022 08 04.61632500 16 54.350-31 42 44.37         22.21GVEP102F52
         K22P01M |C2022 08 05.28609 00 16 32.58 -31 51 23.6          21.6 GVEP102807
         K22P01M |C2022 08 05.29349 00 16 32.30 -31 51 29.4          21.9 GVEP102807
         K22P01M |C2022 08 05.30089 00 16 32.03 -31 51 35.1          21.5 GVEP102807
         K22P01M ^C2022 08 05.59495800 16 21.555-31 55 32.55         21.91GVEP102568
         K22P01M ^C2022 08 05.59616600 16 21.506-31 55 33.56         21.88GVEP102568
         K22P01M ^C2022 08 05.59737500 16 21.460-31 55 34.44         21.80GVEP102568
         K22P01M ^C2022 08 08.56420900 14 24.100-32 33 29.00         21.51GVEP102568
         K22P01M ^C2022 08 08.56738900 14 23.912-32 33 31.05         21.60GVEP102568
         K22P01M ^C2022 08 08.57053900 14 23.794-32 33 33.38         22.08GVEP102568
    
    Observer details:
    568 Mauna Kea.  Observers R. Wainscoat, H. Januszewski, T. Burdullis, J.
        Fairlamb, Y. Ramanjooloo.  Measurers R. Weryk, R. Wainscoat, Y.
        Ramanjooloo.  3.6-m Canada-France-Hawaii Telescope + CCD, 2.24-m
        University of Hawaii reflector + CCD.
    807 Cerro Tololo Observatory, La Serena.  Observers T. Linder, R. Holmes, L.
        Horn.  1.00-m f/10.0 astrograph + CCD.
    F52 Pan-STARRS 2, Haleakala.  Observers J. Bulger, T. Lowe, A. Schultz, I.
        Smith, K. Chambers, T. Dukes.  Measurers K. Chambers, S. Chastel, T. de
        Boer, J. Fairlamb, H. Gao, M. Huber, C.-C. Lin, E. Magnier, Y.
        Ramanjooloo, R. Wainscoat, R. Weryk.  1.8-m Ritchey-Chretien + CCD.
    
    Orbital elements:
    2022 PM1                                                 Earth MOID = 0.2238 AU
    Epoch 2022 Aug. 9.0 TT = JDT 2459800.5                  Veres                   
    M  28.94122              (2000.0)            P               Q                  
    n   0.23907087     Peri.  173.01115     -0.37099728     +0.89218155             
    a   2.5710959      Node    74.94872     -0.86439655     -0.23038830             
    e   0.5191617      Incl.   15.47287     -0.33938123     -0.38850137             
    P   4.12           H   20.04          G   0.15           U   8                  
    Residuals in seconds of arc
    220804 F52  0.1-  0.1+    220805 807  0.1+  0.4-    220805 568  0.0   0.0
    220804 F52  0.0   0.1+    220805 807  0.1+  0.3-    220808 568  0.0   0.2-
    220804 F52  0.3-  0.0     220805 807  0.3+  0.1-    220808 568 (0.4-  0.1+)
    220804 F52  0.1+  0.2-    220805 568  0.0   0.0     220808 568  0.0   0.1+
    220804 F52  0.0   0.1+    220805 568  0.0   0.0
    
    Ephemeris:
    2022 PM1                 a,e,i = 2.57, 0.52, 15                  q = 1.2363
    Date    TT    R. A. (2000) Decl.     Delta      r    Elong.  Phase     V
    2022 07 10    00 12 43.2 -26 08 49   0.8633  1.5708   113.1    36.5    22.2
    ...
    2022 07 25    00 19 32.3 -29 19 30   0.8632  1.6636   124.4    30.3    22.1
    ...
    2022 08 02    00 18 07.6 -31 07 50   0.8700  1.7145   130.7    26.6    22.1
    ...
    2022 08 08    00 14 48.5 -32 26 15   0.8798  1.7531   135.4    24.0    22.1
    2022 08 09    00 14 04.7 -32 38 46   0.8819  1.7596   136.2    23.5    22.1
    2022 08 10    00 13 18.0 -32 51 06   0.8841  1.7660   136.9    23.1    22.1
    ...
    2022 08 16    00 07 41.1 -33 59 49   0.9005  1.8049   141.2    20.6    22.1
    ...
    2022 08 24    23 58 04.5 -35 13 02   0.9315  1.8570   145.8    17.8    22.2
    ...
    2022 09 08    23 36 55.9 -36 12 52   1.0218  1.9547   148.8    15.5    22.4
    
    M. P. C. Staff               (C) Copyright 2022 MPC           M.P.E.C. 2022-P102
    


    Read MPEC 2022-P101 Read MPEC 2022-P103


    MPEC number:

    Enter an MPEC number in one of the following forms:

    • 1997-B01 (the full form)
    • J97B01 (the packed version of the full form)
    • B01 (the abbreviated form)